Time,TemperatureF,DewpointF,PressureIn,WindDirection,WindDirectionDegrees,WindSpeedMPH,WindSpeedGustMPH,Humidity,HourlyPrecipIn,Conditions,Clouds,dailyrainin,SoftwareType,DateUTC
2013-02-15 00:02:00,17.2,6.8,29.03,North,0,0.0,0.0,63,0.00,,---,0.00,VWS V14.01,2013-02-15 06:02:00,
2013-02-15 00:07:00,17.1,6.7,29.03,NNW,339,0.0,0.0,63,0.00,,---,0.00,VWS V14.01,2013-02-15 06:07:00,
2013-02-15 00:12:00,16.9,6.5,29.03,NW,322,0.0,0.0,63,0.00,,---,0.00,VWS V14.01,2013-02-15 06:12:00,
2013-02-15 00:17:00,16.9,6.5,29.03,NW,321,0.0,0.0,63,0.00,,---,0.00,VWS V14.01,2013-02-15 06:17:00,
2013-02-15 00:23:00,16.7,6.3,29.03,NW,322,0.0,0.0,63,0.00,,---,0.00,VWS V14.01,2013-02-15 06:23:00,
2013-02-15 00:28:00,16.5,6.1,29.03,NNW,327,0.0,0.0,63,0.00,,---,0.00,VWS V14.01,2013-02-15 06:28:00,
2013-02-15 00:34:00,16.3,6.0,29.03,NW,321,0.0,0.0,63,0.00,,---,0.00,VWS V14.01,2013-02-15 06:34:00,
2013-02-15 00:40:00,16.2,5.8,29.03,NW,320,0.0,0.0,63,0.00,,---,0.00,VWS V14.01,2013-02-15 06:40:00,
2013-02-15 00:45:00,16.0,5.6,29.03,WSW,257,0.0,0.0,63,0.00,,---,0.00,VWS V14.01,2013-02-15 06:45:00,
2013-02-15 00:50:00,15.8,5.4,29.03,WNW,302,0.0,0.0,63,0.00,,---,0.00,VWS V14.01,2013-02-15 06:50:00,
2013-02-15 00:55:00,15.6,5.3,29.03,West,280,0.0,0.0,63,0.00,,---,0.00,VWS V14.01,2013-02-15 06:55:00,
2013-02-15 01:00:00,15.4,5.1,29.03,West,268,0.0,0.0,63,0.00,,---,0.00,VWS V14.01,2013-02-15 07:00:00,
2013-02-15 01:06:00,15.3,4.9,29.03,NW,304,0.0,0.0,63,0.00,,---,0.00,VWS V14.01,2013-02-15 07:06:00,
2013-02-15 01:11:00,15.3,4.9,29.03,NW,326,0.0,0.0,63,0.00,,---,0.00,VWS V14.01,2013-02-15 07:11:00,
2013-02-15 01:16:00,15.1,4.8,29.03,WNW,296,0.0,0.0,63,0.00,,---,0.00,VWS V14.01,2013-02-15 07:16:00,
2013-02-15 01:21:00,15.1,4.8,29.03,WNW,294,0.0,0.0,63,0.00,,---,0.00,VWS V14.01,2013-02-15 07:21:00,
2013-02-15 01:27:00,14.9,7.5,29.03,WNW,285,0.0,0.0,72,0.00,,---,0.00,VWS V14.01,2013-02-15 07:27:00,
2013-02-15 01:33:00,14.9,7.5,29.06,NNW,331,0.0,0.0,72,0.00,,---,0.00,VWS V14.01,2013-02-15 07:33:00,
2013-02-15 01:38:00,14.7,7.3,29.06,NW,304,0.0,0.0,72,0.00,,---,0.00,VWS V14.01,2013-02-15 07:38:00,
2013-02-15 01:44:00,14.5,7.2,29.06,WSW,243,0.0,0.0,72,0.00,,---,0.00,VWS V14.01,2013-02-15 07:44:00,
2013-02-15 01:50:00,14.2,6.8,29.06,WNW,297,0.0,0.0,72,0.00,,---,0.00,VWS V14.01,2013-02-15 07:50:00,
2013-02-15 01:55:00,13.8,6.5,29.06,NW,320,0.0,0.0,72,0.00,,---,0.00,VWS V14.01,2013-02-15 07:55:00,
2013-02-15 02:01:00,13.6,6.3,29.06,WNW,284,0.0,0.0,72,0.00,,---,0.00,VWS V14.01,2013-02-15 08:01:00,
2013-02-15 02:06:00,13.6,6.3,29.06,West,272,0.0,0.0,72,0.00,,---,0.00,VWS V14.01,2013-02-15 08:06:00,
2013-02-15 02:12:00,13.5,6.1,29.06,WNW,286,0.0,0.0,72,0.00,,---,0.00,VWS V14.01,2013-02-15 08:12:00,
2013-02-15 02:18:00,13.5,6.1,29.06,West,281,0.0,0.0,72,0.00,,---,0.00,VWS V14.01,2013-02-15 08:18:00,
2013-02-15 02:23:00,13.3,6.0,29.06,West,270,0.0,0.0,72,0.00,,---,0.00,VWS V14.01,2013-02-15 08:23:00,
2013-02-15 02:29:00,13.1,5.8,29.06,West,281,0.0,0.0,72,0.00,,---,0.00,VWS V14.01,2013-02-15 08:29:00,
2013-02-15 02:34:00,12.9,5.6,29.06,NW,318,0.0,0.0,72,0.00,,---,0.00,VWS V14.01,2013-02-15 08:34:00,
2013-02-15 02:40:00,12.9,5.6,29.06,WNW,297,0.0,0.0,72,0.00,,---,0.00,VWS V14.01,2013-02-15 08:40:00,
2013-02-15 02:45:00,12.7,5.4,29.06,West,259,0.0,0.0,72,0.00,,---,0.00,VWS V14.01,2013-02-15 08:45:00,
2013-02-15 02:50:00,12.6,5.3,29.06,West,275,0.0,0.0,72,0.00,,---,0.00,VWS V14.01,2013-02-15 08:50:00,
2013-02-15 02:56:00,12.2,4.9,29.06,West,281,0.0,0.0,72,0.00,,---,0.00,VWS V14.01,2013-02-15 08:56:00,
2013-02-15 03:01:00,12.0,4.7,29.06,WNW,290,0.0,0.0,72,0.00,,---,0.00,VWS V14.01,2013-02-15 09:01:00,
2013-02-15 03:07:00,12.0,4.7,29.06,West,261,0.0,0.0,72,0.00,,---,0.00,VWS V14.01,2013-02-15 09:07:00,
2013-02-15 03:12:00,11.8,4.6,29.06,WSW,246,0.0,0.0,72,0.00,,---,0.00,VWS V14.01,2013-02-15 09:12:00,
2013-02-15 03:18:00,11.7,4.4,29.06,West,274,0.0,0.0,72,0.00,,---,0.00,VWS V14.01,2013-02-15 09:18:00,
2013-02-15 03:23:00,11.7,4.4,29.06,West,277,0.0,0.0,72,0.00,,---,0.00,VWS V14.01,2013-02-15 09:23:00,
2013-02-15 03:28:00,11.5,4.2,29.06,WNW,289,0.0,0.0,72,0.00,,---,0.00,VWS V14.01,2013-02-15 09:28:00,
2013-02-15 03:34:00,11.3,4.1,29.06,West,277,0.0,0.0,72,0.00,,---,0.00,VWS V14.01,2013-02-15 09:34:00,
2013-02-15 03:39:00,11.1,3.9,29.06,West,261,0.0,0.0,72,0.00,,---,0.00,VWS V14.01,2013-02-15 09:39:00,
2013-02-15 03:46:00,10.9,3.7,29.06,WSW,257,0.0,0.0,72,0.00,,---,0.00,VWS V14.01,2013-02-15 09:46:00,
2013-02-15 03:51:00,10.8,3.5,29.06,West,270,0.0,0.0,72,0.00,,---,0.00,VWS V14.01,2013-02-15 09:51:00,
2013-02-15 03:57:00,10.8,3.5,29.06,West,274,0.0,0.0,72,0.00,,---,0.00,VWS V14.01,2013-02-15 09:57:00,
2013-02-15 04:03:00,10.8,3.5,29.09,WSW,250,0.0,0.0,72,0.00,,---,0.00,VWS V14.01,2013-02-15 10:03:00,
2013-02-15 04:08:00,10.8,3.5,29.09,WNW,288,0.0,0.0,72,0.00,,---,0.00,VWS V14.01,2013-02-15 10:08:00,
2013-02-15 04:13:00,10.6,3.3,29.09,NNW,343,0.0,0.0,72,0.00,,---,0.00,VWS V14.01,2013-02-15 10:13:00,
2013-02-15 04:19:00,10.6,3.3,29.09,WNW,299,0.0,0.0,72,0.00,,---,0.00,VWS V14.01,2013-02-15 10:19:00,
2013-02-15 04:25:00,10.6,3.3,29.09,WNW,302,0.0,0.0,72,0.00,,---,0.00,VWS V14.01,2013-02-15 10:25:00,
2013-02-15 04:30:00,10.4,3.2,29.09,WNW,294,0.0,0.0,72,0.00,,---,0.00,VWS V14.01,2013-02-15 10:30:00,
2013-02-15 04:36:00,10.4,3.2,29.09,NNW,331,0.0,0.0,72,0.00,,---,0.00,VWS V14.01,2013-02-15 10:36:00,
2013-02-15 04:42:00,10.2,3.0,29.09,WNW,283,0.0,0.0,72,0.00,,---,0.00,VWS V14.01,2013-02-15 10:42:00,
2013-02-15 04:47:00,10.2,3.0,29.09,WNW,298,0.0,0.0,72,0.00,,---,0.00,VWS V14.01,2013-02-15 10:47:00,
2013-02-15 04:53:00,10.2,3.0,29.09,WNW,303,0.0,0.0,72,0.00,,---,0.00,VWS V14.01,2013-02-15 10:53:00,
2013-02-15 04:59:00,10.0,2.8,29.09,NNW,338,0.0,0.0,72,0.00,,---,0.00,VWS V14.01,2013-02-15 10:59:00,
2013-02-15 05:04:00,10.0,2.8,29.09,West,280,0.0,0.0,72,0.00,,---,0.00,VWS V14.01,2013-02-15 11:04:00,
2013-02-15 05:09:00,10.0,2.8,29.09,NW,308,0.0,0.0,72,0.00,,---,0.00,VWS V14.01,2013-02-15 11:09:00,
2013-02-15 05:14:00,9.9,2.7,29.09,WSW,254,0.0,0.0,72,0.00,,---,0.00,VWS V14.01,2013-02-15 11:14:00,
2013-02-15 05:19:00,9.7,2.5,29.09,NW,322,0.0,0.0,72,0.00,,---,0.00,VWS V14.01,2013-02-15 11:19:00,
2013-02-15 05:25:00,9.5,2.3,29.09,NW,310,0.0,0.0,72,0.00,,---,0.00,VWS V14.01,2013-02-15 11:25:00,
2013-02-15 05:31:00,9.3,2.1,29.09,NW,306,0.0,0.0,72,0.00,,---,0.00,VWS V14.01,2013-02-15 11:31:00,
2013-02-15 05:36:00,9.3,2.1,29.09,WNW,283,0.0,0.0,72,0.00,,---,0.00,VWS V14.01,2013-02-15 11:36:00,
2013-02-15 05:42:00,9.1,2.0,29.09,WNW,294,0.0,0.0,72,0.00,,---,0.00,VWS V14.01,2013-02-15 11:42:00,
2013-02-15 05:47:00,9.0,1.8,29.09,NW,310,0.0,0.0,72,0.00,,---,0.00,VWS V14.01,2013-02-15 11:47:00,
2013-02-15 05:53:00,8.8,1.6,29.09,WNW,299,0.0,0.0,72,0.00,,---,0.00,VWS V14.01,2013-02-15 11:53:00,
2013-02-15 05:59:00,8.8,1.6,29.09,WNW,297,0.0,0.0,72,0.00,,---,0.00,VWS V14.01,2013-02-15 11:59:00,
2013-02-15 06:04:00,8.8,1.6,29.12,West,261,0.0,0.0,72,0.00,,---,0.00,VWS V14.01,2013-02-15 12:04:00,
2013-02-15 06:09:00,8.6,1.4,29.12,West,279,0.0,0.0,72,0.00,,---,0.00,VWS V14.01,2013-02-15 12:09:00,
2013-02-15 06:14:00,8.6,1.4,29.12,WNW,301,0.0,0.0,72,0.00,,---,0.00,VWS V14.01,2013-02-15 12:14:00,
2013-02-15 06:20:00,8.4,1.3,29.12,WNW,291,0.0,0.0,72,0.00,,---,0.00,VWS V14.01,2013-02-15 12:20:00,
2013-02-15 06:25:00,8.4,1.3,29.12,WNW,289,0.0,0.0,72,0.00,,---,0.00,VWS V14.01,2013-02-15 12:25:00,
2013-02-15 06:31:00,8.4,1.3,29.12,West,279,0.0,0.0,72,0.00,,---,0.00,VWS V14.01,2013-02-15 12:31:00,
2013-02-15 06:38:00,8.4,1.3,29.12,NW,305,0.0,0.0,72,0.00,,---,0.00,VWS V14.01,2013-02-15 12:38:00,
2013-02-15 06:43:00,8.2,1.1,29.12,NW,308,0.0,0.0,72,0.00,,---,0.00,VWS V14.01,2013-02-15 12:43:00,
2013-02-15 06:49:00,8.4,1.3,29.12,WNW,285,0.0,0.0,72,0.00,,---,0.00,VWS V14.01,2013-02-15 12:49:00,
2013-02-15 06:54:00,8.6,1.4,29.12,West,276,0.0,0.0,72,0.00,,---,0.00,VWS V14.01,2013-02-15 12:54:00,
2013-02-15 06:59:00,8.8,1.6,29.12,NW,321,0.0,0.0,72,0.00,,---,0.00,VWS V14.01,2013-02-15 12:59:00,
2013-02-15 07:06:00,8.8,1.6,29.12,NW,308,0.0,0.0,72,0.00,,---,0.00,VWS V14.01,2013-02-15 13:06:00,
2013-02-15 07:11:00,9.0,1.8,29.12,WNW,288,0.0,0.0,72,0.00,,---,0.00,VWS V14.01,2013-02-15 13:11:00,
2013-02-15 07:16:00,9.1,2.0,29.12,WNW,285,0.0,0.0,72,0.00,,---,0.00,VWS V14.01,2013-02-15 13:16:00,
2013-02-15 07:22:00,9.3,2.1,29.12,West,263,0.0,0.0,72,0.00,,---,0.00,VWS V14.01,2013-02-15 13:22:00,
2013-02-15 07:28:00,9.3,2.1,29.12,WNW,296,0.0,0.0,72,0.00,,---,0.00,VWS V14.01,2013-02-15 13:28:00,
2013-02-15 07:34:00,9.5,2.3,29.12,West,267,0.0,0.0,72,0.00,,---,0.00,VWS V14.01,2013-02-15 13:34:00,
2013-02-15 07:39:00,9.5,2.3,29.12,West,275,0.0,0.0,72,0.00,,---,0.00,VWS V14.01,2013-02-15 13:39:00,
2013-02-15 07:44:00,9.7,2.5,29.12,West,261,0.0,0.0,72,0.00,,---,0.00,VWS V14.01,2013-02-15 13:44:00,
2013-02-15 07:49:00,9.9,2.7,29.12,WNW,295,0.0,0.0,72,0.00,,---,0.00,VWS V14.01,2013-02-15 13:49:00,
2013-02-15 07:55:00,10.0,2.8,29.12,West,266,0.0,0.0,72,0.00,,---,0.00,VWS V14.01,2013-02-15 13:55:00,
2013-02-15 08:00:00,10.2,3.0,29.15,NNW,333,0.0,0.0,72,0.00,,---,0.00,VWS V14.01,2013-02-15 14:00:00,
2013-02-15 08:06:00,10.4,3.2,29.15,NNW,335,0.0,0.0,72,0.00,,---,0.00,VWS V14.01,2013-02-15 14:06:00,
2013-02-15 08:12:00,10.8,3.5,29.15,WNW,302,0.0,0.0,72,0.00,,---,0.00,VWS V14.01,2013-02-15 14:12:00,
2013-02-15 08:17:00,11.1,3.9,29.15,WNW,289,0.0,0.0,72,0.00,,---,0.00,VWS V14.01,2013-02-15 14:17:00,
2013-02-15 08:23:00,11.3,4.1,29.15,West,280,0.0,0.0,72,0.00,,---,0.00,VWS V14.01,2013-02-15 14:23:00,
2013-02-15 08:28:00,11.7,4.4,29.15,NW,320,0.0,0.0,72,0.00,,---,0.00,VWS V14.01,2013-02-15 14:28:00,
2013-02-15 08:33:00,12.0,4.7,29.15,NW,317,0.0,0.0,72,0.00,,---,0.00,VWS V14.01,2013-02-15 14:33:00,
2013-02-15 08:38:00,12.6,5.3,29.15,NNW,341,0.0,0.0,72,0.00,,---,0.00,VWS V14.01,2013-02-15 14:38:00,
2013-02-15 08:43:00,12.9,5.6,29.15,WNW,297,0.0,0.0,72,0.00,,---,0.00,VWS V14.01,2013-02-15 14:43:00,
2013-02-15 08:48:00,13.5,6.1,29.15,NW,313,0.0,0.0,72,0.00,,---,0.00,VWS V14.01,2013-02-15 14:48:00,
2013-02-15 08:53:00,13.6,6.3,29.15,NNW,338,0.0,0.0,72,0.00,,---,0.00,VWS V14.01,2013-02-15 14:53:00,
2013-02-15 08:59:00,13.8,6.5,29.15,WNW,297,0.0,0.0,72,0.00,,---,0.00,VWS V14.01,2013-02-15 14:59:00,
2013-02-15 09:04:00,14.2,3.9,29.15,NNW,333,0.0,0.0,63,0.00,,---,0.00,VWS V14.01,2013-02-15 15:04:00,
2013-02-15 09:09:00,14.9,4.6,29.15,NNW,341,0.0,0.0,63,0.00,,---,0.00,VWS V14.01,2013-02-15 15:09:00,
2013-02-15 09:16:00,15.6,5.3,29.12,West,278,0.0,0.0,63,0.00,,---,0.00,VWS V14.01,2013-02-15 15:16:00,
2013-02-15 09:22:00,15.8,5.4,29.12,NNW,341,0.0,0.0,63,0.00,,---,0.00,VWS V14.01,2013-02-15 15:22:00,
2013-02-15 09:27:00,16.3,6.0,29.12,NNW,328,0.0,0.0,63,0.00,,---,0.00,VWS V14.01,2013-02-15 15:27:00,
2013-02-15 09:33:00,16.9,6.5,29.15,North,357,0.0,0.0,63,0.00,,---,0.00,VWS V14.01,2013-02-15 15:33:00,
2013-02-15 09:38:00,16.7,6.3,29.15,NNW,328,0.0,0.0,63,0.00,,---,0.00,VWS V14.01,2013-02-15 15:38:00,
2013-02-15 09:43:00,16.9,6.5,29.15,NNW,343,0.0,0.0,63,0.00,,---,0.00,VWS V14.01,2013-02-15 15:43:00,
2013-02-15 09:48:00,17.1,6.7,29.15,North,353,0.0,0.0,63,0.00,,---,0.00,VWS V14.01,2013-02-15 15:48:00,
2013-02-15 09:54:00,17.2,6.8,29.15,NNE,22,0.0,0.0,63,0.00,,---,0.00,VWS V14.01,2013-02-15 15:54:00,
2013-02-15 09:59:00,18.0,6.4,29.15,WNW,301,0.0,0.0,60,0.00,,---,0.00,VWS V14.01,2013-02-15 15:59:00,
2013-02-15 10:05:00,18.3,6.8,29.15,North,353,0.0,0.0,60,0.00,,---,0.00,VWS V14.01,2013-02-15 16:05:00,
2013-02-15 10:11:00,19.0,7.4,29.15,NW,326,0.0,0.0,60,0.00,,---,0.00,VWS V14.01,2013-02-15 16:11:00,
2013-02-15 10:16:00,19.9,8.3,29.15,NW,320,0.0,0.0,60,0.00,,---,0.00,VWS V14.01,2013-02-15 16:16:00,
2013-02-15 10:22:00,20.8,9.2,29.15,North,357,0.0,0.0,60,0.00,,---,0.00,VWS V14.01,2013-02-15 16:22:00,
2013-02-15 10:28:00,21.7,10.0,29.15,North,2,0.0,0.0,60,0.00,,---,0.00,VWS V14.01,2013-02-15 16:28:00,
2013-02-15 10:33:00,22.3,10.5,29.15,NNW,338,0.0,0.0,60,0.00,,---,0.00,VWS V14.01,2013-02-15 16:33:00,
2013-02-15 10:39:00,22.8,11.0,29.15,NW,304,3.1,4.0,60,0.00,,---,0.00,VWS V14.01,2013-02-15 16:39:00,
2013-02-15 10:44:00,23.7,10.7,29.15,NNW,338,7.6,8.7,57,0.00,,---,0.00,VWS V14.01,2013-02-15 16:44:00,
2013-02-15 10:49:00,23.7,10.7,29.15,NNW,345,6.3,7.6,57,0.00,,---,0.00,VWS V14.01,2013-02-15 16:49:00,
2013-02-15 10:54:00,23.2,10.2,29.15,NNE,24,8.3,8.3,57,0.00,,---,0.00,VWS V14.01,2013-02-15 16:54:00,
2013-02-15 11:00:00,23.0,11.2,29.15,North,2,5.4,8.1,60,0.00,,---,0.00,VWS V14.01,2013-02-15 17:00:00,
2013-02-15 11:05:00,22.8,11.0,29.15,North,357,4.0,7.6,60,0.00,,---,0.00,VWS V14.01,2013-02-15 17:05:00,
2013-02-15 11:10:00,22.6,10.9,29.15,NNE,15,6.7,8.7,60,0.00,,---,0.00,VWS V14.01,2013-02-15 17:10:00,
2013-02-15 11:16:00,22.1,10.4,29.15,NW,318,8.1,10.5,60,0.00,,---,0.00,VWS V14.01,2013-02-15 17:16:00,
2013-02-15 11:21:00,22.1,10.4,29.15,North,357,5.8,10.5,60,0.00,,---,0.00,VWS V14.01,2013-02-15 17:21:00,
2013-02-15 11:28:00,22.6,10.9,29.15,North,10,8.1,10.5,60,0.00,,---,0.00,VWS V14.01,2013-02-15 17:28:00,
2013-02-15 11:33:00,23.0,11.2,29.15,North,350,10.5,10.5,60,0.00,,---,0.00,VWS V14.01,2013-02-15 17:33:00,
2013-02-15 11:39:00,23.7,10.7,29.15,North,0,3.6,6.3,57,0.00,,---,0.00,VWS V14.01,2013-02-15 17:39:00,
2013-02-15 11:44:00,25.2,12.1,29.15,North,357,5.8,5.8,57,0.00,,---,0.00,VWS V14.01,2013-02-15 17:44:00,
2013-02-15 11:50:00,25.5,12.4,29.15,North,0,8.7,8.7,57,0.00,,---,0.00,VWS V14.01,2013-02-15 17:50:00,
2013-02-15 11:55:00,25.0,11.9,29.15,North,0,11.0,11.0,57,0.00,,---,0.00,VWS V14.01,2013-02-15 17:55:00,
2013-02-15 12:01:00,24.1,11.1,29.12,NNW,334,4.0,8.7,57,0.00,,---,0.00,VWS V14.01,2013-02-15 18:01:00,
2013-02-15 12:06:00,24.4,11.4,29.12,West,280,11.0,11.0,57,0.00,,---,0.00,VWS V14.01,2013-02-15 18:06:00,
2013-02-15 12:12:00,24.3,11.2,29.12,NW,307,8.7,8.7,57,0.00,,---,0.00,VWS V14.01,2013-02-15 18:12:00,
2013-02-15 12:18:00,24.3,11.2,29.12,NNW,341,10.1,11.0,57,0.00,,---,0.00,VWS V14.01,2013-02-15 18:18:00,
2013-02-15 12:24:00,24.3,11.2,29.12,North,349,8.7,11.0,57,0.00,,---,0.00,VWS V14.01,2013-02-15 18:24:00,
2013-02-15 12:29:00,24.8,11.7,29.12,NNW,344,5.8,8.3,57,0.00,,---,0.00,VWS V14.01,2013-02-15 18:29:00,
2013-02-15 12:35:00,25.9,12.8,29.12,North,9,7.6,13.2,57,0.00,,---,0.00,VWS V14.01,2013-02-15 18:35:00,
2013-02-15 12:41:00,27.0,12.6,29.12,NNW,340,5.4,10.1,54,0.00,,---,0.00,VWS V14.01,2013-02-15 18:41:00,
2013-02-15 12:46:00,28.6,14.1,29.12,NNW,332,4.9,6.3,54,0.00,,---,0.00,VWS V14.01,2013-02-15 18:46:00,
2013-02-15 12:52:00,30.2,15.6,29.12,NNW,342,7.6,8.7,54,0.00,,---,0.00,VWS V14.01,2013-02-15 18:52:00,
2013-02-15 12:57:00,28.9,14.4,29.12,WNW,297,9.6,10.5,54,0.00,,---,0.00,VWS V14.01,2013-02-15 18:57:00,
2013-02-15 13:03:00,28.0,13.6,29.12,West,272,10.1,10.1,54,0.00,,---,0.00,VWS V14.01,2013-02-15 19:03:00,
2013-02-15 13:08:00,27.1,12.7,29.12,WNW,301,9.6,11.4,54,0.00,,---,0.00,VWS V14.01,2013-02-15 19:08:00,
2013-02-15 13:14:00,25.9,12.8,29.12,WNW,302,6.3,8.7,57,0.00,,---,0.00,VWS V14.01,2013-02-15 19:14:00,
2013-02-15 13:20:00,25.2,12.1,29.12,WNW,290,5.4,8.7,57,0.00,,---,0.00,VWS V14.01,2013-02-15 19:20:00,
2013-02-15 13:25:00,24.8,11.7,29.12,NNW,331,5.8,6.7,57,0.00,,---,0.00,VWS V14.01,2013-02-15 19:25:00,
2013-02-15 13:31:00,24.6,11.6,29.12,NNW,331,8.7,8.7,57,0.00,,---,0.00,VWS V14.01,2013-02-15 19:31:00,
2013-02-15 13:36:00,24.3,11.2,29.12,WSW,243,5.8,10.5,57,0.00,,---,0.00,VWS V14.01,2013-02-15 19:36:00,
2013-02-15 13:42:00,24.1,11.1,29.12,WNW,300,5.8,9.2,57,0.00,,---,0.00,VWS V14.01,2013-02-15 19:42:00,
2013-02-15 13:48:00,24.1,11.1,29.12,North,357,7.2,8.3,57,0.00,,---,0.00,VWS V14.01,2013-02-15 19:48:00,
2013-02-15 13:54:00,24.3,11.2,29.12,NW,319,8.1,8.7,57,0.00,,---,0.00,VWS V14.01,2013-02-15 19:54:00,
2013-02-15 14:00:00,23.9,10.9,29.12,NW,325,8.1,10.5,57,0.00,,---,0.00,VWS V14.01,2013-02-15 20:00:00,
2013-02-15 14:05:00,23.7,10.7,29.12,WNW,299,8.3,8.7,57,0.00,,---,0.00,VWS V14.01,2013-02-15 20:05:00,
2013-02-15 14:10:00,23.5,10.6,29.12,NW,314,3.6,7.2,57,0.00,,---,0.00,VWS V14.01,2013-02-15 20:10:00,
2013-02-15 14:15:00,23.5,10.6,29.12,West,268,8.1,12.8,57,0.00,,---,0.00,VWS V14.01,2013-02-15 20:15:00,
2013-02-15 14:21:00,23.7,10.7,29.12,NW,320,4.0,8.1,57,0.00,,---,0.00,VWS V14.01,2013-02-15 20:21:00,
2013-02-15 14:27:00,24.3,11.2,29.12,NNW,346,7.6,8.7,57,0.00,,---,0.00,VWS V14.01,2013-02-15 20:27:00,
2013-02-15 14:32:00,24.4,11.4,29.12,West,273,10.1,10.1,57,0.00,,---,0.00,VWS V14.01,2013-02-15 20:32:00,
2013-02-15 14:38:00,24.1,11.1,29.12,NW,309,15.0,15.0,57,0.00,,---,0.00,VWS V14.01,2013-02-15 20:38:00,
2013-02-15 14:43:00,24.3,11.2,29.12,NW,312,5.8,8.1,57,0.00,,---,0.00,VWS V14.01,2013-02-15 20:43:00,
2013-02-15 14:49:00,24.4,11.4,29.12,WNW,301,4.0,8.7,57,0.00,,---,0.00,VWS V14.01,2013-02-15 20:49:00,
2013-02-15 14:55:00,23.9,10.9,29.12,NW,309,9.6,10.1,57,0.00,,---,0.00,VWS V14.01,2013-02-15 20:55:00,
2013-02-15 15:00:00,23.9,10.9,29.12,NW,323,6.3,7.6,57,0.00,,---,0.00,VWS V14.01,2013-02-15 21:00:00,
2013-02-15 15:06:00,23.4,10.4,29.12,West,278,8.1,11.0,57,0.00,,---,0.00,VWS V14.01,2013-02-15 21:06:00,
2013-02-15 15:11:00,22.8,11.0,29.12,NW,317,7.6,10.1,60,0.00,,---,0.00,VWS V14.01,2013-02-15 21:11:00,
2013-02-15 15:17:00,22.5,10.7,29.12,WNW,303,5.8,11.0,60,0.00,,---,0.00,VWS V14.01,2013-02-15 21:17:00,
2013-02-15 15:23:00,22.3,10.5,29.12,WSW,245,6.3,7.6,60,0.00,,---,0.00,VWS V14.01,2013-02-15 21:23:00,
2013-02-15 15:28:00,22.1,10.4,29.12,NNW,343,4.9,6.3,60,0.00,,---,0.00,VWS V14.01,2013-02-15 21:28:00,
2013-02-15 15:33:00,22.1,10.4,29.12,NW,317,6.3,10.5,60,0.00,,---,0.00,VWS V14.01,2013-02-15 21:33:00,
2013-02-15 15:38:00,21.9,10.2,29.12,WNW,292,8.7,8.7,60,0.00,,---,0.00,VWS V14.01,2013-02-15 21:38:00,
2013-02-15 15:44:00,21.4,9.7,29.12,NNW,348,8.3,8.3,60,0.00,,---,0.00,VWS V14.01,2013-02-15 21:44:00,
2013-02-15 15:49:00,21.2,9.5,29.12,NNW,348,7.6,13.2,60,0.00,,---,0.00,VWS V14.01,2013-02-15 21:49:00,
2013-02-15 15:55:00,21.2,9.5,29.12,WNW,300,5.8,10.5,60,0.00,,---,0.00,VWS V14.01,2013-02-15 21:55:00,
2013-02-15 16:00:00,20.5,8.8,29.15,SSW,205,4.9,10.5,60,0.00,,---,0.00,VWS V14.01,2013-02-15 22:00:00,
2013-02-15 16:05:00,20.5,8.8,29.15,WNW,295,7.6,8.3,60,0.00,,---,0.00,VWS V14.01,2013-02-15 22:05:00,
2013-02-15 16:10:00,20.3,8.6,29.15,WNW,298,8.1,8.3,60,0.00,,---,0.00,VWS V14.01,2013-02-15 22:10:00,
2013-02-15 16:16:00,19.8,8.1,29.15,NNW,348,8.1,8.1,60,0.00,,---,0.00,VWS V14.01,2013-02-15 22:16:00,
2013-02-15 16:21:00,19.8,8.1,29.15,WNW,287,4.9,6.3,60,0.00,,---,0.00,VWS V14.01,2013-02-15 22:21:00,
2013-02-15 16:26:00,19.6,8.0,29.15,West,275,3.6,8.3,60,0.00,,---,0.00,VWS V14.01,2013-02-15 22:26:00,
2013-02-15 16:31:00,19.6,8.0,29.15,WNW,288,6.3,11.0,60,0.00,,---,0.00,VWS V14.01,2013-02-15 22:31:00,
2013-02-15 16:37:00,19.4,7.8,29.15,NNW,330,6.3,7.6,60,0.00,,---,0.00,VWS V14.01,2013-02-15 22:37:00,
2013-02-15 16:42:00,19.2,7.6,29.15,WNW,296,7.6,12.3,60,0.00,,---,0.00,VWS V14.01,2013-02-15 22:42:00,
2013-02-15 16:48:00,19.2,7.6,29.15,West,279,5.4,7.6,60,0.00,,---,0.00,VWS V14.01,2013-02-15 22:48:00,
2013-02-15 16:53:00,18.7,7.1,29.15,NW,314,5.8,9.6,60,0.00,,---,0.00,VWS V14.01,2013-02-15 22:53:00,
2013-02-15 16:59:00,18.5,6.9,29.15,NW,304,3.1,8.3,60,0.00,,---,0.00,VWS V14.01,2013-02-15 22:59:00,
2013-02-15 17:05:00,18.3,6.8,29.15,North,0,3.6,8.7,60,0.00,,---,0.00,VWS V14.01,2013-02-15 23:05:00,
2013-02-15 17:10:00,18.1,6.6,29.15,NW,312,8.1,8.1,60,0.00,,---,0.00,VWS V14.01,2013-02-15 23:10:00,
2013-02-15 17:15:00,18.0,6.4,29.15,North,0,5.8,8.7,60,0.00,,---,0.00,VWS V14.01,2013-02-15 23:15:00,
2013-02-15 17:20:00,17.8,6.3,29.15,NNW,341,2.7,4.0,60,0.00,,---,0.00,VWS V14.01,2013-02-15 23:20:00,
2013-02-15 17:26:00,17.6,7.2,29.15,North,0,4.9,8.3,63,0.00,,---,0.00,VWS V14.01,2013-02-15 23:26:00,
2013-02-15 17:31:00,17.4,7.0,29.15,West,273,5.8,7.6,63,0.00,,---,0.00,VWS V14.01,2013-02-15 23:31:00,
2013-02-15 17:37:00,16.9,6.5,29.15,West,275,7.6,8.3,63,0.00,,---,0.00,VWS V14.01,2013-02-15 23:37:00,
2013-02-15 17:43:00,16.7,6.3,29.15,NW,311,3.6,8.7,63,0.00,,---,0.00,VWS V14.01,2013-02-15 23:43:00,
2013-02-15 17:49:00,16.5,6.1,29.15,West,274,5.8,6.3,63,0.00,,---,0.00,VWS V14.01,2013-02-15 23:49:00,
2013-02-15 17:55:00,16.2,5.8,29.15,WNW,287,5.8,8.1,63,0.00,,---,0.00,VWS V14.01,2013-02-15 23:55:00,
2013-02-15 18:01:00,16.0,5.6,29.15,West,275,7.6,7.6,63,0.00,,---,0.00,VWS V14.01,2013-02-16 00:01:00,
2013-02-15 18:06:00,15.8,5.4,29.15,West,264,6.7,6.7,63,0.00,,---,0.00,VWS V14.01,2013-02-16 00:06:00,
2013-02-15 18:12:00,15.6,5.3,29.15,WNW,290,5.4,10.1,63,0.00,,---,0.00,VWS V14.01,2013-02-16 00:12:00,
2013-02-15 18:17:00,15.4,5.1,29.15,NW,309,3.6,8.7,63,0.00,,---,0.00,VWS V14.01,2013-02-16 00:17:00,
2013-02-15 18:23:00,15.4,5.1,29.15,NW,304,8.7,8.7,63,0.00,,---,0.00,VWS V14.01,2013-02-16 00:23:00,
2013-02-15 18:29:00,15.3,4.9,29.15,NW,316,4.0,9.6,63,0.00,,---,0.00,VWS V14.01,2013-02-16 00:29:00,
2013-02-15 18:34:00,15.3,4.9,29.15,NE,39,6.7,7.6,63,0.00,,---,0.00,VWS V14.01,2013-02-16 00:34:00,
2013-02-15 18:40:00,15.1,4.8,29.15,WNW,298,4.0,4.0,63,0.00,,---,0.00,VWS V14.01,2013-02-16 00:40:00,
2013-02-15 18:45:00,14.9,4.6,29.15,NW,305,6.7,7.6,63,0.00,,---,0.00,VWS V14.01,2013-02-16 00:45:00,
2013-02-15 18:51:00,14.7,4.4,29.15,SW,229,2.7,7.2,63,0.00,,---,0.00,VWS V14.01,2013-02-16 00:51:00,
2013-02-15 18:57:00,14.7,4.4,29.15,WSW,247,5.8,8.7,63,0.00,,---,0.00,VWS V14.01,2013-02-16 00:57:00,
2013-02-15 19:02:00,14.7,4.4,29.15,NW,316,5.8,8.3,63,0.00,,---,0.00,VWS V14.01,2013-02-16 01:02:00,
2013-02-15 19:08:00,14.5,4.2,29.15,West,277,5.4,5.4,63,0.00,,---,0.00,VWS V14.01,2013-02-16 01:08:00,
2013-02-15 19:14:00,14.5,4.2,29.15,WNW,287,5.8,7.2,63,0.00,,---,0.00,VWS V14.01,2013-02-16 01:14:00,
2013-02-15 19:19:00,14.5,4.2,29.15,WNW,303,6.3,6.3,63,0.00,,---,0.00,VWS V14.01,2013-02-16 01:19:00,
2013-02-15 19:25:00,14.5,4.2,29.15,West,280,3.1,5.8,63,0.00,,---,0.00,VWS V14.01,2013-02-16 01:25:00,
2013-02-15 19:30:00,14.4,4.1,29.15,West,276,5.8,6.7,63,0.00,,---,0.00,VWS V14.01,2013-02-16 01:30:00,
2013-02-15 19:36:00,14.4,4.1,29.15,WNW,284,4.9,5.8,63,0.00,,---,0.00,VWS V14.01,2013-02-16 01:36:00,
2013-02-15 19:42:00,14.4,4.1,29.15,WNW,299,6.3,6.3,63,0.00,,---,0.00,VWS V14.01,2013-02-16 01:42:00,
2013-02-15 19:47:00,14.4,4.1,29.18,NW,308,3.6,5.4,63,0.00,,---,0.00,VWS V14.01,2013-02-16 01:47:00,
2013-02-15 19:52:00,14.4,4.1,29.18,West,279,4.0,6.3,63,0.00,,---,0.00,VWS V14.01,2013-02-16 01:52:00,
2013-02-15 19:57:00,14.2,3.9,29.18,NW,304,4.0,6.3,63,0.00,,---,0.00,VWS V14.01,2013-02-16 01:57:00,
2013-02-15 20:03:00,14.0,4.8,29.15,West,281,4.0,6.3,66,0.00,,---,0.00,VWS V14.01,2013-02-16 02:03:00,
2013-02-15 20:08:00,13.8,4.6,29.15,WNW,282,3.6,6.3,66,0.00,,---,0.00,VWS V14.01,2013-02-16 02:08:00,
2013-02-15 20:14:00,13.6,4.4,29.15,West,275,5.8,6.3,66,0.00,,---,0.00,VWS V14.01,2013-02-16 02:14:00,
2013-02-15 20:19:00,13.5,4.2,29.18,WNW,294,6.3,6.3,66,0.00,,---,0.00,VWS V14.01,2013-02-16 02:19:00,
2013-02-15 20:24:00,13.3,4.1,29.18,NW,305,3.6,5.4,66,0.00,,---,0.00,VWS V14.01,2013-02-16 02:24:00,
2013-02-15 20:29:00,13.1,3.9,29.18,WNW,297,6.3,6.3,66,0.00,,---,0.00,VWS V14.01,2013-02-16 02:29:00,
2013-02-15 20:35:00,12.9,3.7,29.15,WNW,290,4.0,4.0,66,0.00,,---,0.00,VWS V14.01,2013-02-16 02:35:00,
2013-02-15 20:40:00,12.7,3.5,29.15,West,266,3.6,6.3,66,0.00,,---,0.00,VWS V14.01,2013-02-16 02:40:00,
2013-02-15 20:45:00,12.6,3.4,29.18,NNW,344,3.1,5.8,66,0.00,,---,0.00,VWS V14.01,2013-02-16 02:45:00,
2013-02-15 20:50:00,12.6,3.4,29.18,NW,311,3.6,4.5,66,0.00,,---,0.00,VWS V14.01,2013-02-16 02:50:00,
2013-02-15 20:55:00,12.6,3.4,29.18,NW,312,4.0,4.0,66,0.00,,---,0.00,VWS V14.01,2013-02-16 02:55:00,
2013-02-15 21:00:00,12.4,3.2,29.18,NNW,346,7.2,7.2,66,0.00,,---,0.00,VWS V14.01,2013-02-16 03:00:00,
2013-02-15 21:06:00,12.4,3.2,29.18,NW,326,3.6,5.4,66,0.00,,---,0.00,VWS V14.01,2013-02-16 03:06:00,
2013-02-15 21:11:00,12.2,3.0,29.18,NNW,329,3.1,7.6,66,0.00,,---,0.00,VWS V14.01,2013-02-16 03:11:00,
2013-02-15 21:17:00,12.2,3.0,29.15,WNW,292,4.0,5.4,66,0.00,,---,0.00,VWS V14.01,2013-02-16 03:17:00,
2013-02-15 21:22:00,12.0,2.9,29.15,NW,314,5.4,5.4,66,0.00,,---,0.00,VWS V14.01,2013-02-16 03:22:00,
2013-02-15 21:28:00,12.0,2.9,29.15,NW,323,6.3,6.3,66,0.00,,---,0.00,VWS V14.01,2013-02-16 03:28:00,
2013-02-15 21:34:00,11.8,2.7,29.18,NW,310,5.4,5.4,66,0.00,,---,0.00,VWS V14.01,2013-02-16 03:34:00,
2013-02-15 21:39:00,11.8,2.7,29.18,NNW,333,5.4,5.4,66,0.00,,---,0.00,VWS V14.01,2013-02-16 03:39:00,
2013-02-15 21:45:00,11.8,2.7,29.15,NW,306,3.6,4.0,66,0.00,,---,0.00,VWS V14.01,2013-02-16 03:45:00,
2013-02-15 21:50:00,11.8,2.7,29.15,North,10,3.1,3.1,66,0.00,,---,0.00,VWS V14.01,2013-02-16 03:50:00,
2013-02-15 21:56:00,11.8,2.7,29.15,NNE,20,3.6,3.6,66,0.00,,---,0.00,VWS V14.01,2013-02-16 03:56:00,
2013-02-15 22:02:00,12.0,2.9,29.15,NE,35,6.3,7.6,66,0.00,,---,0.00,VWS V14.01,2013-02-16 04:02:00,
2013-02-15 22:07:00,11.8,2.7,29.15,NE,51,5.4,8.1,66,0.00,,---,0.00,VWS V14.01,2013-02-16 04:07:00,
2013-02-15 22:12:00,11.8,2.7,29.15,North,9,4.9,8.1,66,0.00,,---,0.00,VWS V14.01,2013-02-16 04:12:00,
2013-02-15 22:18:00,11.7,2.5,29.18,North,6,3.6,6.3,66,0.00,,---,0.00,VWS V14.01,2013-02-16 04:18:00,
2013-02-15 22:24:00,11.5,2.3,29.18,North,7,4.0,5.8,66,0.00,,---,0.00,VWS V14.01,2013-02-16 04:24:00,
2013-02-15 22:29:00,11.3,2.2,29.18,NNE,14,3.1,3.6,66,0.00,,---,0.00,VWS V14.01,2013-02-16 04:29:00,
2013-02-15 22:35:00,10.9,1.8,29.18,NNE,13,0.0,0.0,66,0.00,,---,0.00,VWS V14.01,2013-02-16 04:35:00,
2013-02-15 22:40:00,10.6,1.5,29.18,NNE,13,0.0,0.0,66,0.00,,---,0.00,VWS V14.01,2013-02-16 04:40:00,
2013-02-15 22:46:00,9.7,0.6,29.18,NNE,13,0.0,0.0,66,0.00,,---,0.00,VWS V14.01,2013-02-16 04:46:00,
2013-02-15 22:52:00,8.8,-0.2,29.18,NNE,13,0.0,0.0,66,0.00,,---,0.00,VWS V14.01,2013-02-16 04:52:00,
2013-02-15 22:57:00,8.6,-0.4,29.18,NNE,13,0.0,2.2,66,0.00,,---,0.00,VWS V14.01,2013-02-16 04:57:00,
2013-02-15 23:00:00,8.4,-0.6,29.18,NNE,13,2.2,2.2,66,0.00,,---,0.00,VWS V14.01,2013-02-16 05:00:00,
2013-02-15 23:01:00,8.2,-0.8,29.18,NNE,13,2.2,2.2,66,0.00,,---,0.00,VWS V14.01,2013-02-16 05:01:00,
2013-02-15 23:04:00,8.1,-0.9,29.18,North,9,2.7,2.7,66,0.00,,---,0.00,VWS V14.01,2013-02-16 05:04:00,
2013-02-15 23:06:00,7.9,-1.1,29.18,NW,314,3.1,3.6,66,0.00,,---,0.00,VWS V14.01,2013-02-16 05:06:00,
2013-02-15 23:12:00,7.5,-1.5,29.18,WSW,254,2.7,3.1,66,0.00,,---,0.00,VWS V14.01,2013-02-16 05:12:00,
2013-02-15 23:17:00,7.2,-1.8,29.18,WSW,252,3.1,3.1,66,0.00,,---,0.00,VWS V14.01,2013-02-16 05:17:00,
2013-02-15 23:23:00,7.0,-2.0,29.18,WSW,237,2.7,3.1,66,0.00,,---,0.00,VWS V14.01,2013-02-16 05:23:00,
2013-02-15 23:28:00,6.8,-2.1,29.18,WSW,252,2.7,2.7,66,0.00,,---,0.00,VWS V14.01,2013-02-16 05:28:00,
2013-02-15 23:29:00,6.8,-2.1,29.18,WSW,252,2.7,2.7,66,0.00,,---,0.00,VWS V14.01,2013-02-16 05:29:00,
2013-02-15 23:34:00,6.4,-2.5,29.18,WSW,252,3.6,3.6,66,0.00,,---,0.00,VWS V14.01,2013-02-16 05:34:00,
2013-02-15 23:40:00,6.1,-2.8,29.18,WSW,252,3.6,3.6,66,0.00,,---,0.00,VWS V14.01,2013-02-16 05:40:00,
2013-02-15 23:46:00,5.5,-3.3,29.18,WSW,238,3.6,4.9,66,0.00,,---,0.00,VWS V14.01,2013-02-16 05:46:00,
2013-02-15 23:51:00,5.0,-3.9,29.18,WSW,238,3.6,4.0,66,0.00,,---,0.00,VWS V14.01,2013-02-16 05:51:00,
2013-02-15 23:57:00,4.6,-4.2,29.18,WSW,238,2.7,3.1,66,0.00,,---,0.00,VWS V14.01,2013-02-16 05:57:00,